Location: �chenoz-la-M�line
(47.6009°N, 6.1354°E)
Time: 13:07:30
(UTC+00:00)

USA 215 - Pass Details

Date: 27 January 2021
Orbit: 1103 x 1105 km, 123.0° (Epoch: 14 February)

Event Time Altitude Azimuth Distance (km) Brightness Sun altitude
Rises 04:33:04 0° 60° (ENE) 3,927 7.1 -26.1°
Reaches altitude 10° 04:35:39 10° 55° (NE) 2,968 6.2 -25.6°
Maximum altitude 04:41:48 46° 345° (NNW) 1,457 3.7 -24.6°
Enters shadow 04:43:19 39° 311° (NW) 1,591 3.7 -24.3°
